CW2751 Weather Reports


Display with metric or nautical units.
time (UTC)temp
F
wind
direction
speed
MPH
gust
MPH
rain 1hr
in
rain 24hr
in
rain mn
in
humidity
%
barometer
mb
20260504050012 57 145 2.0 0.0 0.00 0.00 0.00 37 999.5
20260504044546 57 113 2.0 0.0 0.00 0.00 0.00 37 999.5
20260504043040 57 121 1.0 0.0 0.00 0.00 0.00 37 999.5
20260504041502 57 102 2.0 0.0 0.00 0.00 0.00 36 999.8
20260504040035 57 107 4.0 0.0 0.00 0.00 0.00 35 1000.2
20260504034551 58 87 3.0 0.0 0.00 0.00 0.00 35 1000.4
20260504033013 59 78 3.0 0.0 0.00 0.00 0.00 33 1000.3
20260504031524 60 46 3.0 0.0 0.00 0.00 0.00 30 1000.2
20260504030044 62 45 4.0 0.0 0.00 0.00 0.00 28 999.8
20260504024604 63 49 3.0 0.0 0.00 0.00 0.00 27 999.1
20260504023100 65 51 3.0 0.0 0.00 0.00 0.00 25 998.8
20260504023003 66 46 3.0 0.0 0.00 0.00 0.00 25 998.8
20260504021508 68 41 1.0 0.0 0.00 0.00 0.00 24 998.5
20260504020016 71 54 1.0 0.0 0.00 0.00 0.00 21 998.6
20260504014518 73 80 2.0 0.0 0.00 0.00 0.00 20 998.3
20260504013042 75 80 2.0 0.0 0.00 0.00 0.00 19 998.0
20260504011512 77 82 3.0 0.0 0.00 0.00 0.00 18 997.8
20260504010056 76 61 3.0 0.0 0.00 0.00 0.00 16 999.1
20260504004602 77 62 4.0 0.0 0.00 0.00 0.00 15 999.2
20260504003004 78 17 3.0 0.0 0.00 0.00 0.00 14 999.0
20260504001510 78 48 5.0 0.0 0.00 0.00 0.00 14 999.1
20260504000010 77 354 4.0 0.0 0.00 0.00 0.00 16 999.8
20260503234516 78 357 5.0 0.0 0.00 0.00 0.00 15 999.8
20260503233024 79 330 4.0 0.0 0.00 0.00 0.00 13 999.9
20260503231548 80 326 5.0 0.0 0.00 0.00 0.00 13 999.6
20260503224548 80 271 4.0 0.0 0.00 0.00 0.00 12 999.9
20260503223010 82 323 5.0 0.0 0.00 0.00 0.00 13 999.7
20260503221522 81 342 2.0 0.0 0.00 0.00 0.00 14 1000.1
20260503220022 80 18 5.0 0.0 0.00 0.00 0.00 14 1000.1
20260503214547 79 8 4.0 0.0 0.00 0.00 0.00 14 1000.7
20260503213053 79 357 4.0 0.0 0.00 0.00 0.00 14 1000.8
20260503211609 79 316 6.0 0.0 0.00 0.00 0.00 14 1001.1
20260503210005 79 326 5.0 0.0 0.00 0.00 0.00 14 1001.4
20260503204524 79 336 4.0 0.0 0.00 0.00 0.00 14 1001.6
20260503203029 79 319 5.0 0.0 0.00 0.00 0.00 15 1001.8
20260503201520 79 4 5.0 0.0 0.00 0.00 0.00 15 1001.9
20260503200039 78 336 6.0 0.0 0.00 0.00 0.00 14 1002.0
20260503194549 78 323 4.0 0.0 0.00 0.00 0.00 15 1002.0
20260503193054 78 8 4.0 0.0 0.00 0.00 0.00 16 1002.0
20260503191515 77 20 3.0 0.0 0.00 0.00 0.00 18 1002.3
20260503190021 76 28 2.0 0.0 0.00 0.00 0.00 17 1002.7
20260503184522 76 299 6.0 0.0 0.00 0.00 0.00 18 1003.1
20260503183036 76 319 4.0 0.0 0.00 0.00 0.00 18 1003.4
20260503181554 75 346 5.0 0.0 0.00 0.00 0.00 18 1004.0
20260503180040 74 288 6.0 0.0 0.00 0.00 0.00 18 1003.7
20260503174543 73 11 6.0 0.0 0.00 0.00 0.00 19 1004.2
20260503173056 73 351 5.0 0.0 0.00 0.00 0.00 20 1004.4
20260503171558 73 18 5.0 0.0 0.00 0.00 0.00 22 1004.5
20260503171502 73 319 6.0 0.0 0.00 0.00 0.00 22 1004.5
20260503120109 51 277 9.0 0.0 0.00 0.00 0.00 39 1005.1
20260503081539 54 198 10.0 0.0 0.00 0.00 0.00 35 1006.3
20260503071531 54 233 9.0 0.0 0.00 0.00 0.00 34 1007.3
20260503060108 56 220 9.0 0.0 0.00 0.00 0.00 28 1008.0
20260503054547 56 212 9.0 0.0 0.00 0.00 0.00 30 1007.9